Regional Weather Roundup
Issued by NWS

Home | Current Version | Previous Version | Graphics & Text | Print | Product List | Glossary On
Versions: 1 2 3 4 5 6 7 8 9 10 11 12 13 14 15 16 17 18 19 20 21 22 23 24 25 26 27 28 29 30 31 32 33 34 35 36 37 38 39 40 41 42 43 44 45 46 47 48 49 50
000
ASUS43 KTOP 010708
RWRKS

WEATHER ROUNDUP FOR KANSAS
NATIONAL WEATHER SERVICE GOODLAND KS
200 AM CDT SAT AUG 01 2015

NOTE:  "FAIR" INDICATES FEW OR NO CLOUDS BELOW 12,000 FEET WITH NO
SIGNIFICANT WEATHER AND/OR OBSTRUCTIONS TO VISIBILITY.

KSZ001>006-013>018-027>032-041>047-010800-
NORTHWEST KANSAS

CITY           SKY/WX    TMP DP  RH WIND       PRES   REMARKS
GOODLAND       CLEAR     71  59  65 SW12      30.19F
HAYS           CLEAR     72  63  73 S8        30.12S
HILL CITY      CLEAR     73  65  75 S3        30.12S
RUSSELL        CLEAR     73  69  87 S10       30.10S
$$

KSZ061>065-074>080-084>089-010800-
SOUTHWEST KANSAS

CITY           SKY/WX    TMP DP  RH WIND       PRES   REMARKS
DODGE CITY     CLEAR     69  67  93 S5        30.16S
ELKHART          N/A     67  63  87 S5          N/A
GARDEN CITY    CLEAR     69  66  90 S5        30.16F
GREAT BEND     CLEAR     72  66  83 SW6       30.11F
LIBERAL        CLOUDY    72  66  83 CALM      30.17R
PRATT          CLEAR     70  68  94 CALM      30.14S
$$

KSZ066>073-081>083-090>101-010800-
SOUTHEAST KANSAS

CITY           SKY/WX    TMP DP  RH WIND       PRES   REMARKS
CHANUTE        CLEAR     71  69  93 SW5       30.09S
COFFEYVILLE    CLEAR     68  67  96 E3        30.08S
HUTCHINSON     CLEAR     76  71  85 S6        30.10S
MEDICINE LODGE   N/A     74  71  91 SE5       30.10R
NEWTON         CLEAR     73  68  83 SW6       30.12S
PARSONS        CLEAR     67  67 100 CALM      30.09F
WICHITA INTL   CLEAR     75  71  87 S5        30.09F
WICHITA JABRA  CLEAR     75  71  87 S5        30.10S
WICHITA MCCONL CLEAR     74  71  91 S7        30.10S
WINFIELD       CLEAR     75  72  90 CALM      30.10S
$$

KSZ007>012-019>026-033>040-048>060-102>105-010800-
NORTHEAST KANSAS

CITY           SKY/WX    TMP DP  RH WIND       PRES   REMARKS
CONCORDIA      PTCLDY    70  65  84 S6        30.09S
EMPORIA        CLEAR     71  69  93 S5        30.09S
LAWRENCE       CLEAR     69  67  93 S5        30.07S
MANHATTAN      PTCLDY    72  69  90 CALM      30.08R
MARYSVILLE     PTCLDY    73  72  94 CALM      30.08R
OLATHE IND     CLEAR     72  67  84 S3        30.09S
OLATHE EXE     CLEAR     70  67  90 S3        30.07F
SALINA         CLEAR     75  69  81 SW3       30.08S
TOPEKA BILLARD CLEAR     73  72  96 CALM      30.07F
TOPEKA FORBES  CLEAR     73  68  84 SW6       30.07F
$$



USA.gov is the U.S. government's official web portal to all federal, state and local government web resources and services.